Wetterdaten: aktuell Montag, 11.12.2017 12:28
Datum Zeit Temp. 2m Temp. -5cm Temp. -10cm Temp. 2m alt Feuchte A. Luftdruck Regen Wind Richtung Richtung Taupunkt Windchill Windben
11.12.2017 12:28 8,4 C 8,2 C 1,5 C 4,2 C 73 % 993,4 hPa 0,0 l/m 3,1 km/h (1 Bft) O-NO 67 3,8 C 8,4 C 4,6 km/h (1 Bft)
11.12.2017 12:26 8,0 C 8,1 C 1,5 C 3,9 C 74 % 993,4 hPa 0,0 l/m 2,6 km/h (1 Bft) O-SO 112 3,7 C 8,0 C 8,9 km/h (2 Bft)
11.12.2017 12:24 7,7 C 10,0 C 1,5 C 3,5 C 75 % 993,4 hPa 0,0 l/m 2,3 km/h (1 Bft) O-SO 112 3,6 C 7,7 C 11,0 km/h (2 Bft)
11.12.2017 12:22 6,7 C 10,4 C 1,5 C 3,5 C 79 % 993,4 hPa 0,0 l/m 1,9 km/h (1 Bft) SW 225 3,3 C 6,7 C 10,0 km/h (2 Bft)
11.12.2017 12:20 4,3 C 7,9 C 1,5 C 3,3 C 79 % 993,4 hPa 0,0 l/m 1,3 km/h (1 Bft) S 180 1,0 C 4,3 C 4,8 km/h (1 Bft)
11.12.2017 12:18 4,1 C 4,3 C 1,5 C 3,2 C 79 % 993,4 hPa 0,0 l/m 1,1 km/h (1 Bft) N-NO 22 0,8 C 4,1 C 4,8 km/h (1 Bft)
11.12.2017 12:16 3,9 C 4,2 C 1,5 C 3,1 C 79 % 993,4 hPa 0,0 l/m 0,8 km/h (0 Bft) S-SO 157 0,6 C 3,9 C 0,0 km/h (0 Bft)
11.12.2017 12:14 3,9 C 4,1 C 1,5 C 3,1 C 79 % 993,4 hPa 0,0 l/m 0,8 km/h (0 Bft) W-SW 247 0,6 C 3,9 C 6,4 km/h (2 Bft)
11.12.2017 12:12 3,7 C 3,3 C 1,5 C 2,5 C 79 % 993,4 hPa 0,0 l/m 1,0 km/h (0 Bft) S 180 0,4 C 3,7 C 6,4 km/h (2 Bft)
11.12.2017 12:10 3,1 C 3,3 C 1,4 C 2,5 C 79 % 993,4 hPa 0,0 l/m 1,0 km/h (0 Bft) S 180 -0,2 C 3,1 C 0,0 km/h (0 Bft)
11.12.2017 12:08 3,1 C 3,3 C 1,4 C 2,5 C 79 % 993,3 hPa 0,0 l/m 1,0 km/h (0 Bft) S 180 -0,2 C 3,1 C 0,0 km/h (0 Bft)
11.12.2017 12:06 3,1 C 3,3 C 1,4 C 2,5 C 79 % 993,3 hPa 0,0 l/m 1,0 km/h (0 Bft) S 180 -0,2 C 3,1 C 0,0 km/h (0 Bft)
11.12.2017 12:04 3,1 C 3,3 C 1,4 C 2,5 C 79 % 993,3 hPa 0,0 l/m 1,0 km/h (0 Bft) S 180 -0,2 C 3,1 C 0,0 km/h (0 Bft)
11.12.2017 12:02 3,1 C 3,3 C 1,4 C 2,5 C 79 % 993,3 hPa 0,0 l/m 1,0 km/h (0 Bft) S 180 -0,2 C 3,1 C 5,6 km/h (1 Bft)
11.12.2017 12:00 3,0 C 3,3 C 1,4 C 2,5 C 79 % 993,3 hPa 0,0 l/m 1,0 km/h (0 Bft) S-SO 157 -0,3 C 3,0 C 5,6 km/h (1 Bft)
11.12.2017 11:58 3,0 C 3,3 C 1,5 C 2,5 C 79 % 993,3 hPa 0,0 l/m 0,8 km/h (0 Bft) S-SO 157 -0,3 C 3,0 C 4,2 km/h (1 Bft)
11.12.2017 11:56 3,0 C 3,3 C 1,4 C 2,4 C 79 % 993,3 hPa 0,0 l/m 0,8 km/h (0 Bft) S 180 -0,3 C 3,0 C 4,2 km/h (1 Bft)
11.12.2017 11:54 2,9 C 3,2 C 1,5 C 2,5 C 80 % 993,3 hPa 0,0 l/m 0,6 km/h (0 Bft) N-NO 22 -0,2 C 2,9 C 2,7 km/h (1 Bft)
11.12.2017 11:52 2,9 C 3,2 C 1,5 C 2,3 C 80 % 993,3 hPa 0,0 l/m 0,3 km/h (0 Bft) W-NW 292 -0,2 C 2,9 C 0,0 km/h (0 Bft)
11.12.2017 11:50 2,8 C 3,1 C 1,5 C 2,3 C 80 % 993,3 hPa 0,0 l/m 0,5 km/h (0 Bft) N-NW 337 -0,3 C 2,8 C 0,0 km/h (0 Bft)
11.12.2017 11:48 2,8 C 3,1 C 1,5 C 2,3 C 80 % 993,8 hPa 0,0 l/m 0,5 km/h (0 Bft) W-SW 247 -0,3 C 2,8 C 0,0 km/h (0 Bft)
11.12.2017 11:46 2,7 C 3,1 C 1,5 C 2,2 C 80 % 993,8 hPa 0,0 l/m 0,5 km/h (0 Bft) N-NO 22 -0,4 C 2,7 C 0,0 km/h (0 Bft)
11.12.2017 11:44 2,7 C 3,1 C 1,5 C 2,1 C 80 % 993,8 hPa 0,0 l/m 0,5 km/h (0 Bft) SW 225 -0,4 C 2,7 C 0,0 km/h (0 Bft)
11.12.2017 11:42 2,6 C 3,0 C 1,5 C 2,1 C 80 % 993,8 hPa 0,0 l/m 0,5 km/h (0 Bft) O-NO 67 -0,5 C 2,6 C 3,3 km/h (1 Bft)
11.12.2017 11:40 2,5 C 3,0 C 1,4 C 1,9 C 80 % 993,8 hPa 0,0 l/m 0,2 km/h (0 Bft) NO 45 -0,6 C 2,5 C 3,3 km/h (1 Bft)
11.12.2017 11:38 2,5 C 3,0 C 1,4 C 1,9 C 80 % 993,8 hPa 0,0 l/m 0,3 km/h (0 Bft) O-SO 112 -0,6 C 2,5 C 1,9 km/h (1 Bft)
11.12.2017 11:36 2,5 C 2,9 C 1,4 C 1,9 C 80 % 993,8 hPa 0,0 l/m 0,3 km/h (0 Bft) SO 135 -0,6 C 2,5 C 1,9 km/h (1 Bft)
11.12.2017 11:34 2,4 C 2,9 C 1,4 C 1,9 C 80 % 993,8 hPa 0,0 l/m 0,5 km/h (0 Bft) S 180 -0,7 C 2,4 C 2,1 km/h (1 Bft)
11.12.2017 11:32 2,2 C 2,8 C 1,4 C 1,9 C 80 % 993,8 hPa 0,0 l/m 0,8 km/h (0 Bft) S-SO 157 -0,9 C 2,2 C 2,1 km/h (1 Bft)
11.12.2017 11:30 2,1 C 2,5 C 1,4 C 1,8 C 81 % 993,8 hPa 0,0 l/m 1,0 km/h (0 Bft) S-SO 157 -0,8 C 2,1 C 4,2 km/h (1 Bft)
11.12.2017 11:28 2,1 C 2,5 C 1,4 C 1,7 C 81 % 994,4 hPa 0,0 l/m 1,1 km/h (1 Bft) W-SW 247 -0,8 C 2,1 C 4,2 km/h (1 Bft)
11.12.2017 11:26 2,1 C 2,5 C 1,4 C 1,8 C 81 % 994,4 hPa 0,0 l/m 1,1 km/h (1 Bft) S 180 -0,8 C 2,1 C 2,7 km/h (1 Bft)
11.12.2017 11:24 2,1 C 2,3 C 1,4 C 1,7 C 81 % 994,4 hPa 0,0 l/m 1,1 km/h (1 Bft) S-SO 157 -0,8 C 2,1 C 7,0 km/h (2 Bft)
11.12.2017 11:22 2,1 C 2,3 C 1,4 C 1,7 C 81 % 994,4 hPa 0,0 l/m 1,0 km/h (0 Bft) S-SW 202 -0,8 C 2,1 C 7,0 km/h (2 Bft)
11.12.2017 11:20 2,0 C 2,3 C 1,4 C 1,6 C 81 % 994,4 hPa 0,0 l/m 0,8 km/h (0 Bft) O-NO 67 -0,9 C 2,0 C 0,0 km/h (0 Bft)
11.12.2017 11:18 2,0 C 2,3 C 1,4 C 1,5 C 81 % 994,4 hPa 0,0 l/m 1,0 km/h (0 Bft) S-SO 157 -0,9 C 2,0 C 2,1 km/h (1 Bft)
11.12.2017 11:16 2,0 C 2,2 C 1,4 C 1,5 C 81 % 994,4 hPa 0,0 l/m 0,8 km/h (0 Bft) S-SO 157 -0,9 C 2,0 C 2,1 km/h (1 Bft)
11.12.2017 11:14 2,0 C 2,2 C 1,4 C 1,5 C 81 % 994,4 hPa 0,0 l/m 1,0 km/h (0 Bft) NO 45 -0,9 C 2,0 C 2,1 km/h (1 Bft)
11.12.2017 11:12 1,9 C 2,5 C 1,4 C 1,5 C 81 % 994,4 hPa 0,0 l/m 1,0 km/h (0 Bft) S-SW 202 -1,0 C 1,9 C 2,7 km/h (1 Bft)
11.12.2017 11:10 1,9 C 2,2 C 1,4 C 1,5 C 81 % 994,4 hPa 0,0 l/m 1,1 km/h (1 Bft) N 360 -1,0 C 1,9 C 3,5 km/h (1 Bft)
11.12.2017 11:08 1,9 C 2,2 C 1,4 C 1,4 C 81 % 994,5 hPa 0,0 l/m 1,3 km/h (1 Bft) O-NO 67 -1,0 C 1,9 C 3,5 km/h (1 Bft)
11.12.2017 11:06 1,8 C 2,2 C 1,4 C 1,4 C 81 % 994,5 hPa 0,0 l/m 1,3 km/h (1 Bft) N-NO 22 -1,1 C 1,8 C 2,5 km/h (1 Bft)
11.12.2017 11:04 1,8 C 2,1 C 1,4 C 1,3 C 81 % 994,5 hPa 0,0 l/m 1,1 km/h (1 Bft) N-NO 22 -1,1 C 1,8 C 2,5 km/h (1 Bft)
11.12.2017 11:02 1,8 C 2,0 C 1,4 C 1,3 C 81 % 994,5 hPa 0,0 l/m 1,1 km/h (1 Bft) O-NO 67 -1,1 C 1,8 C 3,9 km/h (1 Bft)
11.12.2017 11:00 1,6 C 1,9 C 1,4 C 1,2 C 81 % 994,5 hPa 0,0 l/m 1,1 km/h (1 Bft) SO 135 -1,3 C 1,6 C 4,6 km/h (1 Bft)
11.12.2017 10:58 1,6 C 1,8 C 1,4 C 1,2 C 81 % 994,5 hPa 0,0 l/m 1,0 km/h (0 Bft) S-SO 157 -1,3 C 1,6 C 4,6 km/h (1 Bft)
11.12.2017 10:56 1,6 C 1,7 C 1,4 C 1,1 C 81 % 994,5 hPa 0,0 l/m 1,0 km/h (0 Bft) O-NO 67 -1,3 C 1,6 C 3,3 km/h (1 Bft)
11.12.2017 10:54 1,6 C 1,7 C 1,4 C 1,1 C 81 % 994,5 hPa 0,0 l/m 0,8 km/h (0 Bft) W 270 -1,3 C 1,6 C 2,9 km/h (1 Bft)
11.12.2017 10:52 1,6 C 1,8 C 1,4 C 1,1 C 82 % 994,5 hPa 0,0 l/m 0,8 km/h (0 Bft) N-NO 22 -1,1 C 1,6 C 2,5 km/h (1 Bft)
11.12.2017 10:50 1,5 C 1,9 C 1,4 C 1,0 C 81 % 994,5 hPa 0,0 l/m 0,8 km/h (0 Bft) O-NO 67 -1,4 C 1,5 C 5,6 km/h (1 Bft)
11.12.2017 10:48 1,5 C 1,9 C 1,4 C 1,0 C 81 % 994,9 hPa 0,0 l/m 0,8 km/h (0 Bft) N-NW 337 -1,4 C 1,5 C 5,6 km/h (1 Bft)
11.12.2017 10:46 1,5 C 2,0 C 1,4 C 1,0 C 82 % 994,9 hPa 0,0 l/m 0,8 km/h (0 Bft) NW 315 -1,2 C 1,5 C 0,0 km/h (0 Bft)
11.12.2017 10:44 1,5 C 1,9 C 1,5 C 0,9 C 82 % 994,9 hPa 0,0 l/m 1,3 km/h (1 Bft) O-NO 67 -1,2 C 1,5 C 9,5 km/h (2 Bft)
11.12.2017 10:42 1,4 C 1,9 C 1,5 C 0,9 C 82 % 994,9 hPa 0,0 l/m 1,1 km/h (1 Bft) NW 315 -1,3 C 1,4 C 3,5 km/h (1 Bft)
11.12.2017 10:40 1,4 C 1,8 C 1,5 C 0,8 C 82 % 994,9 hPa 0,0 l/m 1,1 km/h (1 Bft) NO 45 -1,3 C 1,4 C 3,5 km/h (1 Bft)
11.12.2017 10:38 1,3 C 1,8 C 1,5 C 0,8 C 82 % 994,9 hPa 0,0 l/m 1,3 km/h (1 Bft) W-NW 292 -1,4 C 1,3 C 4,4 km/h (1 Bft)
11.12.2017 10:36 1,3 C 1,7 C 1,5 C 0,7 C 82 % 994,9 hPa 0,0 l/m 1,4 km/h (1 Bft) NO 45 -1,4 C 1,3 C 4,6 km/h (1 Bft)
11.12.2017 10:34 1,3 C 1,6 C 1,5 C 0,7 C 82 % 994,9 hPa 0,0 l/m 0,8 km/h (0 Bft) N-NO 22 -1,4 C 1,3 C 4,6 km/h (1 Bft)
11.12.2017 10:32 1,2 C 1,6 C 1,5 C 0,6 C 82 % 994,9 hPa 0,0 l/m 0,6 km/h (0 Bft) SO 135 -1,5 C 1,2 C 2,7 km/h (1 Bft)
11.12.2017 10:30 1,1 C 1,5 C 1,5 C 0,6 C 82 % 994,9 hPa 0,0 l/m 0,5 km/h (0 Bft) SO 135 -1,6 C 1,1 C 0,0 km/h (0 Bft)
11.12.2017 10:28 1,1 C 1,5 C 1,5 C 0,6 C 82 % 994,6 hPa 0,0 l/m 0,6 km/h (0 Bft) SO 135 -1,6 C 1,1 C 0,0 km/h (0 Bft)
11.12.2017 10:26 1,1 C 1,3 C 1,5 C 0,5 C 82 % 994,6 hPa 0,0 l/m 0,8 km/h (0 Bft) O-NO 67 -1,6 C 1,1 C 0,0 km/h (0 Bft)
11.12.2017 10:24 1,1 C 1,2 C 1,5 C 0,5 C 82 % 994,6 hPa 0,0 l/m 0,8 km/h (0 Bft) N 360 -1,6 C 1,1 C 0,0 km/h (0 Bft)
11.12.2017 10:22 1,1 C 1,2 C 1,5 C 0,4 C 82 % 994,6 hPa 0,0 l/m 0,6 km/h (0 Bft) N-NO 22 -1,6 C 1,1 C 0,0 km/h (0 Bft)
11.12.2017 10:20 1,0 C 1,2 C 1,5 C 0,4 C 82 % 994,6 hPa 0,0 l/m 0,8 km/h (0 Bft) N 360 -1,7 C 1,0 C 4,2 km/h (1 Bft)
11.12.2017 10:18 1,0 C 1,1 C 1,5 C 0,3 C 82 % 994,6 hPa 0,0 l/m 0,6 km/h (0 Bft) N-NO 22 -1,7 C 1,0 C 4,2 km/h (1 Bft)
11.12.2017 10:16 1,0 C 1,1 C 1,5 C 0,3 C 82 % 994,6 hPa 0,0 l/m 0,5 km/h (0 Bft) N-NO 22 -1,7 C 1,0 C 3,9 km/h (1 Bft)
11.12.2017 10:14 1,0 C 1,1 C 1,5 C 0,2 C 82 % 994,6 hPa 0,0 l/m 0,5 km/h (0 Bft) W-SW 247 -1,7 C 1,0 C 0,0 km/h (0 Bft)
11.12.2017 10:12 1,0 C 1,2 C 1,5 C 0,2 C 82 % 994,6 hPa 0,0 l/m 0,3 km/h (0 Bft) NO 45 -1,7 C 1,0 C 3,3 km/h (1 Bft)
11.12.2017 10:10 0,8 C 1,2 C 1,5 C 0,1 C 83 % 994,6 hPa 0,0 l/m 0,3 km/h (0 Bft) NO 45 -1,8 C 0,8 C 3,3 km/h (1 Bft)
11.12.2017 10:08 0,8 C 1,2 C 1,5 C 0,1 C 83 % 994,4 hPa 0,0 l/m 0,2 km/h (0 Bft) O-NO 67 -1,8 C 0,8 C 0,0 km/h (0 Bft)
11.12.2017 10:06 0,8 C 1,1 C 1,5 C 0,0 C 83 % 994,4 hPa 0,0 l/m 0,2 km/h (0 Bft) O-NO 67 -1,8 C 0,8 C 3,5 km/h (1 Bft)
11.12.2017 10:04 0,8 C 1,0 C 1,5 C 0,0 C 83 % 994,4 hPa 0,0 l/m 0,2 km/h (0 Bft) N-NO 22 -1,8 C 0,8 C 3,5 km/h (1 Bft)
11.12.2017 10:02 0,7 C 1,0 C 1,5 C -0,1 C 83 % 994,4 hPa 0,0 l/m 0,3 km/h (0 Bft) S-SO 157 -1,8 C 0,7 C 0,0 km/h (0 Bft)
11.12.2017 10:00 0,7 C 1,0 C 1,5 C -0,1 C 83 % 994,4 hPa 0,0 l/m 0,3 km/h (0 Bft) N-NO 22 -1,8 C 0,7 C 0,0 km/h (0 Bft)
11.12.2017 09:58 0,7 C 1,0 C 1,5 C -0,1 C 83 % 994,4 hPa 0,0 l/m 0,3 km/h (0 Bft) N-NO 22 -1,8 C 0,7 C 0,0 km/h (0 Bft)
11.12.2017 09:56 0,6 C 1,0 C 1,5 C -0,2 C 83 % 994,4 hPa 0,0 l/m 0,3 km/h (0 Bft) W 270 -1,9 C 0,6 C 0,0 km/h (0 Bft)
11.12.2017 09:54 0,6 C 0,9 C 1,5 C -0,3 C 83 % 994,4 hPa 0,0 l/m 0,5 km/h (0 Bft) O-SO 112 -1,9 C 0,6 C 1,9 km/h (1 Bft)
11.12.2017 09:52 0,5 C 0,9 C 1,5 C -0,3 C 83 % 994,4 hPa 0,0 l/m 0,6 km/h (0 Bft) NO 45 -2,0 C 0,5 C 1,9 km/h (1 Bft)
11.12.2017 09:50 0,4 C 0,8 C 1,5 C -0,4 C 83 % 994,4 hPa 0,0 l/m 0,5 km/h (0 Bft) O-NO 67 -2,1 C 0,4 C 0,0 km/h (0 Bft)
11.12.2017 09:48 0,4 C 0,8 C 1,5 C -0,5 C 83 % 994,5 hPa 0,0 l/m 0,5 km/h (0 Bft) SO 135 -2,1 C 0,4 C 2,5 km/h (1 Bft)
11.12.2017 09:46 0,4 C 0,7 C 1,5 C -0,5 C 83 % 994,5 hPa 0,0 l/m 0,8 km/h (0 Bft) N-NO 22 -2,1 C 0,4 C 2,5 km/h (1 Bft)
11.12.2017 09:44 0,3 C 0,7 C 1,5 C -0,6 C 83 % 994,5 hPa 0,0 l/m 0,8 km/h (0 Bft) SW 225 -2,2 C 0,3 C 2,3 km/h (1 Bft)
11.12.2017 09:42 0,3 C 0,6 C 1,5 C -0,6 C 83 % 994,5 hPa 0,0 l/m 0,5 km/h (0 Bft) O-NO 67 -2,2 C 0,3 C 2,5 km/h (1 Bft)
11.12.2017 09:40 0,1 C 0,5 C 1,5 C -0,7 C 83 % 994,5 hPa 0,0 l/m 0,5 km/h (0 Bft) NO 45 -2,4 C 0,1 C 2,5 km/h (1 Bft)
11.12.2017 09:38 0,1 C 0,5 C 1,5 C -0,8 C 83 % 994,5 hPa 0,0 l/m 0,3 km/h (0 Bft) S-SO 157 -2,4 C 0,1 C 3,5 km/h (1 Bft)
11.12.2017 09:36 0,0 C 0,2 C 1,5 C -0,8 C 83 % 994,5 hPa 0,0 l/m 0,2 km/h (0 Bft) NO 45 -2,5 C 0,0 C 3,5 km/h (1 Bft)
11.12.2017 09:34 0,0 C 0,2 C 1,5 C -0,8 C 83 % 994,5 hPa 0,0 l/m 0,0 km/h (0 Bft) W-SW 247 -2,5 C 0,0 C 0,0 km/h (0 Bft)
11.12.2017 09:32 -0,1 C 0,2 C 1,5 C -0,9 C 83 % 994,5 hPa 0,0 l/m 0,2 km/h (0 Bft) NO 45 -2,6 C -0,1 C 0,0 km/h (0 Bft)
11.12.2017 09:30 -0,1 C 0,1 C 1,5 C -0,9 C 83 % 994,5 hPa 0,0 l/m 0,2 km/h (0 Bft) O-NO 67 -2,6 C -0,1 C 0,0 km/h (0 Bft)
11.12.2017 09:28 -0,1 C 0,1 C 1,5 C -0,9 C 83 % 994,8 hPa 0,0 l/m 0,2 km/h (0 Bft) S 180 -2,6 C -0,1 C 0,0 km/h (0 Bft)
11.12.2017 09:26 -0,2 C 0,1 C 1,5 C -1,0 C 83 % 994,8 hPa 0,0 l/m 0,5 km/h (0 Bft) O-NO 67 -2,7 C -0,2 C 2,3 km/h (1 Bft)
11.12.2017 09:24 -0,4 C 0,0 C 1,5 C -1,1 C 83 % 994,8 hPa 0,0 l/m 0,5 km/h (0 Bft) S 180 -2,9 C -0,4 C 2,3 km/h (1 Bft)
11.12.2017 09:22 -0,4 C 0,0 C 1,5 C -1,1 C 83 % 994,8 hPa 0,0 l/m 0,5 km/h (0 Bft) SW 225 -2,9 C -0,4 C 2,3 km/h (1 Bft)
11.12.2017 09:20 -0,5 C -0,1 C 1,5 C -1,3 C 83 % 994,8 hPa 0,0 l/m 0,5 km/h (0 Bft) SO 135 -3,0 C -0,5 C 0,0 km/h (0 Bft)
11.12.2017 09:18 -0,5 C -0,1 C 1,5 C -1,3 C 84 % 994,8 hPa 0,0 l/m 0,6 km/h (0 Bft) SO 135 -2,9 C -0,5 C 2,9 km/h (1 Bft)
11.12.2017 09:16 -0,6 C -0,2 C 1,5 C -1,3 C 84 % 994,8 hPa 0,0 l/m 0,6 km/h (0 Bft) NO 45 -3,0 C -0,6 C 2,9 km/h (1 Bft)
11.12.2017 09:14 -0,6 C -0,2 C 1,5 C -1,3 C 83 % 994,8 hPa 0,0 l/m 0,6 km/h (0 Bft) N-NO 22 -3,1 C -0,6 C 2,7 km/h (1 Bft)
11.12.2017 09:12 -0,8 C -0,4 C 1,5 C -1,3 C 83 % 994,8 hPa 0,0 l/m 0,8 km/h (0 Bft) O-SO 112 -3,3 C -0,8 C 2,7 km/h (1 Bft)
11.12.2017 09:10 -0,8 C -0,5 C 1,5 C -1,4 C 83 % 994,8 hPa 0,0 l/m 1,0 km/h (0 Bft) S-SO 157 -3,3 C -0,8 C 3,5 km/h (1 Bft)
11.12.2017 09:08 -0,8 C -0,5 C 1,5 C -1,4 C 83 % 994,6 hPa 0,0 l/m 1,0 km/h (0 Bft) NO 45 -3,3 C -0,8 C 3,5 km/h (1 Bft)
11.12.2017 09:06 -0,9 C -0,5 C 1,5 C -1,5 C 83 % 994,6 hPa 0,0 l/m 0,8 km/h (0 Bft) O 90 -3,4 C -0,9 C 2,3 km/h (1 Bft)
11.12.2017 09:04 -0,9 C -0,5 C 1,5 C -1,5 C 83 % 994,6 hPa 0,0 l/m 0,8 km/h (0 Bft) NW 315 -3,4 C -0,9 C 2,3 km/h (1 Bft)
11.12.2017 09:02 -0,9 C -0,5 C 1,5 C -1,6 C 84 % 994,6 hPa 0,0 l/m 0,5 km/h (0 Bft) NO 45 -3,3 C -0,9 C 2,3 km/h (1 Bft)
11.12.2017 09:00 -0,9 C -0,5 C 1,5 C -1,6 C 84 % 994,6 hPa 0,0 l/m 0,5 km/h (0 Bft) NW 315 -3,3 C -0,9 C 2,3 km/h (1 Bft)
11.12.2017 08:58 -0,9 C -0,6 C 1,5 C -1,7 C 84 % 994,6 hPa 0,0 l/m 0,2 km/h (0 Bft) O-NO 67 -3,3 C -0,9 C 0,0 km/h (0 Bft)
11.12.2017 08:56 -0,9 C -0,6 C 1,5 C -1,7 C 84 % 994,6 hPa 0,0 l/m 0,2 km/h (0 Bft) O-SO 112 -3,3 C -0,9 C 0,0 km/h (0 Bft)
11.12.2017 08:54 -1,0 C -0,6 C 1,5 C -1,7 C 84 % 994,6 hPa 0,0 l/m 0,2 km/h (0 Bft) O-NO 67 -3,4 C -1,0 C 0,0 km/h (0 Bft)
11.12.2017 08:52 -1,0 C -0,7 C 1,6 C -1,8 C 84 % 994,6 hPa 0,0 l/m 0,0 km/h (0 Bft) N-NO 22 -3,4 C -1,0 C 0,0 km/h (0 Bft)
11.12.2017 08:50 -1,2 C -0,9 C 1,6 C -1,8 C 84 % 994,6 hPa 0,0 l/m 0,2 km/h (0 Bft) N-NO 22 -3,5 C -1,2 C 0,0 km/h (0 Bft)
11.12.2017 08:48 -1,2 C -0,9 C 1,6 C -1,9 C 84 % 994,4 hPa 0,0 l/m 0,2 km/h (0 Bft) W-NW 292 -3,5 C -1,2 C 0,0 km/h (0 Bft)
11.12.2017 08:46 -1,2 C -1,0 C 1,6 C -1,9 C 84 % 994,4 hPa 0,0 l/m 0,2 km/h (0 Bft) W-NW 292 -3,5 C -1,2 C 0,0 km/h (0 Bft)
11.12.2017 08:44 -1,2 C -1,0 C 1,6 C -1,9 C 84 % 994,4 hPa 0,0 l/m 0,2 km/h (0 Bft) N-NO 22 -3,5 C -1,2 C 0,0 km/h (0 Bft)
11.12.2017 08:42 -1,3 C -1,1 C 1,6 C -2,0 C 84 % 994,4 hPa 0,0 l/m 0,2 km/h (0 Bft) SW 225 -3,6 C -1,3 C 0,0 km/h (0 Bft)
11.12.2017 08:40 -1,3 C -1,2 C 1,6 C -1,9 C 84 % 994,4 hPa 0,0 l/m 0,0 km/h (0 Bft) W 270 -3,6 C -1,3 C 0,0 km/h (0 Bft)
11.12.2017 08:38 -1,3 C -1,2 C 1,6 C -2,0 C 84 % 994,4 hPa 0,0 l/m 0,0 km/h (0 Bft) W 270 -3,6 C -1,3 C 0,0 km/h (0 Bft)
11.12.2017 08:36 -1,3 C -1,4 C 1,6 C -2,0 C 84 % 994,4 hPa 0,0 l/m 0,0 km/h (0 Bft) W 270 -3,6 C -1,3 C 0,0 km/h (0 Bft)
11.12.2017 08:34 -1,4 C -1,4 C 1,6 C -2,0 C 84 % 994,4 hPa 0,0 l/m 0,0 km/h (0 Bft) S-SO 157 -3,7 C -1,4 C 0,0 km/h (0 Bft)
11.12.2017 08:32 -1,4 C -1,4 C 1,6 C -2,0 C 84 % 994,4 hPa 0,0 l/m 0,3 km/h (0 Bft) S-SO 157 -3,7 C -1,4 C 0,0 km/h (0 Bft)
11.12.2017 08:30 -1,4 C -1,6 C 1,6 C -2,0 C 84 % 994,4 hPa 0,0 l/m 0,3 km/h (0 Bft) S-SO 157 -3,7 C -1,4 C 0,0 km/h (0 Bft)
11.12.2017 08:28 -1,4 C -1,6 C 1,6 C -2,1 C 84 % 994,2 hPa 0,0 l/m 0,3 km/h (0 Bft) O-NO 67 -3,7 C -1,4 C 0,0 km/h (0 Bft)
11.12.2017 08:26 -1,4 C -1,7 C 1,6 C -2,0 C 84 % 994,2 hPa 0,0 l/m 0,5 km/h (0 Bft) O-NO 67 -3,7 C -1,4 C 0,0 km/h (0 Bft)
11.12.2017 08:24 -1,4 C -1,7 C 1,6 C -2,1 C 84 % 994,2 hPa 0,0 l/m 0,6 km/h (0 Bft) O-SO 112 -3,7 C -1,4 C 3,9 km/h (1 Bft)
11.12.2017 08:22 -1,4 C -1,7 C 1,6 C -2,1 C 84 % 994,2 hPa 0,0 l/m 0,6 km/h (0 Bft) O-NO 67 -3,7 C -1,4 C 3,9 km/h (1 Bft)
11.12.2017 08:20 -1,4 C -1,7 C 1,6 C -2,1 C 84 % 994,2 hPa 0,0 l/m 0,3 km/h (0 Bft) N-NO 22 -3,7 C -1,4 C 0,0 km/h (0 Bft)
11.12.2017 08:18 -1,6 C -1,9 C 1,6 C -2,1 C 84 % 994,2 hPa 0,0 l/m 0,3 km/h (0 Bft) O-NO 67 -3,9 C -1,6 C 2,3 km/h (1 Bft)
11.12.2017 08:16 -1,6 C -2,0 C 1,6 C -2,1 C 84 % 994,2 hPa 0,0 l/m 0,3 km/h (0 Bft) N-NO 22 -3,9 C -1,6 C 2,3 km/h (1 Bft)
11.12.2017 08:14 -1,5 C -2,0 C 1,6 C -2,1 C 84 % 994,2 hPa 0,0 l/m 0,2 km/h (0 Bft) N-NW 337 -3,8 C -1,5 C 2,1 km/h (1 Bft)
11.12.2017 08:12 -1,5 C -2,0 C 1,6 C -2,1 C 84 % 994,2 hPa 0,0 l/m 0,0 km/h (0 Bft) N-NO 22 -3,8 C -1,5 C 0,0 km/h (0 Bft)
11.12.2017 08:10 -1,6 C -2,2 C 1,6 C -2,1 C 83 % 994,2 hPa 0,0 l/m 0,0 km/h (0 Bft) N-NO 22 -4,1 C -1,6 C 0,0 km/h (0 Bft)
11.12.2017 08:08 -1,6 C -2,2 C 1,6 C -2,1 C 83 % 994,1 hPa 0,0 l/m 0,0 km/h (0 Bft) SO 135 -4,1 C -1,6 C 0,0 km/h (0 Bft)
11.12.2017 08:06 -1,6 C -2,1 C 1,6 C -2,1 C 83 % 994,1 hPa 0,0 l/m 0,0 km/h (0 Bft) SO 135 -4,1 C -1,6 C 0,0 km/h (0 Bft)
11.12.2017 08:04 -1,6 C -2,2 C 1,6 C -2,1 C 83 % 994,1 hPa 0,0 l/m 0,3 km/h (0 Bft) SO 135 -4,1 C -1,6 C 0,0 km/h (0 Bft)
11.12.2017 08:02 -1,6 C -2,2 C 1,6 C -2,1 C 83 % 994,1 hPa 0,0 l/m 0,3 km/h (0 Bft) S 180 -4,1 C -1,6 C 0,0 km/h (0 Bft)
11.12.2017 08:01 -1,6 C -2,2 C 1,6 C -2,1 C 83 % 994,1 hPa 0,0 l/m 0,3 km/h (0 Bft) S 180 -4,1 C -1,6 C 0,0 km/h (0 Bft)
11.12.2017 07:58 -1,6 C -2,4 C 1,6 C -2,1 C 83 % 994,1 hPa 0,0 l/m 0,3 km/h (0 Bft) S-SO 157 -4,1 C -1,6 C 2,7 km/h (1 Bft)
11.12.2017 07:56 -1,6 C -2,4 C 1,6 C -2,1 C 83 % 994,1 hPa 0,0 l/m 0,5 km/h (0 Bft) N-NO 22 -4,1 C -1,6 C 2,9 km/h (1 Bft)
11.12.2017 07:54 -1,6 C -2,5 C 1,6 C -2,1 C 83 % 994,1 hPa 0,0 l/m 0,5 km/h (0 Bft) W-SW 247 -4,1 C -1,6 C 2,9 km/h (1 Bft)
11.12.2017 07:52 -1,6 C -2,6 C 1,6 C -2,1 C 83 % 994,1 hPa 0,0 l/m 0,3 km/h (0 Bft) S-SO 157 -4,1 C -1,6 C 0,0 km/h (0 Bft)
11.12.2017 07:50 -1,8 C -2,5 C 1,6 C -2,1 C 83 % 994,1 hPa 0,0 l/m 0,5 km/h (0 Bft) SW 225 -4,3 C -1,8 C 0,0 km/h (0 Bft)
11.12.2017 07:48 -1,8 C -2,5 C 1,6 C -2,1 C 83 % 994,6 hPa 0,0 l/m 0,5 km/h (0 Bft) S-SW 202 -4,3 C -1,8 C 1,9 km/h (1 Bft)
11.12.2017 07:46 -1,8 C -2,6 C 1,6 C -2,1 C 83 % 994,6 hPa 0,0 l/m 0,5 km/h (0 Bft) W 270 -4,3 C -1,8 C 1,9 km/h (1 Bft)
11.12.2017 07:44 -1,8 C -2,7 C 1,6 C -2,1 C 83 % 994,6 hPa 0,0 l/m 0,0 km/h (0 Bft) W 270 -4,3 C -1,8 C 0,0 km/h (0 Bft)
11.12.2017 07:42 -1,8 C -2,7 C 1,6 C -2,1 C 83 % 994,6 hPa 0,0 l/m 0,0 km/h (0 Bft) N-NO 22 -4,3 C -1,8 C 2,1 km/h (1 Bft)
11.12.2017 07:40 -1,6 C -2,6 C 1,6 C -2,1 C 83 % 994,6 hPa 0,0 l/m 0,0 km/h (0 Bft) N-NO 22 -4,1 C -1,6 C 2,1 km/h (1 Bft)
11.12.2017 07:38 -1,6 C -2,7 C 1,6 C -2,0 C 83 % 994,6 hPa 0,0 l/m 0,0 km/h (0 Bft) NO 45 -4,1 C -1,6 C 0,0 km/h (0 Bft)
11.12.2017 07:36 -1,7 C -2,5 C 1,6 C -1,9 C 83 % 994,6 hPa 0,0 l/m 0,0 km/h (0 Bft) NO 45 -4,2 C -1,7 C 0,0 km/h (0 Bft)
11.12.2017 07:34 -1,7 C -2,5 C 1,6 C -2,0 C 83 % 994,6 hPa 0,0 l/m 0,0 km/h (0 Bft) N 360 -4,2 C -1,7 C 0,0 km/h (0 Bft)
11.12.2017 07:32 -1,6 C -2,4 C 1,6 C -1,9 C 83 % 994,6 hPa 0,0 l/m 0,0 km/h (0 Bft) N-NO 22 -4,1 C -1,6 C 0,0 km/h (0 Bft)
11.12.2017 07:30 -1,6 C -2,5 C 1,6 C -1,9 C 83 % 994,6 hPa 0,0 l/m 0,0 km/h (0 Bft) N 360 -4,1 C -1,6 C 0,0 km/h (0 Bft)
11.12.2017 07:28 -1,6 C -2,5 C 1,6 C -1,9 C 83 % 994,4 hPa 0,0 l/m 0,0 km/h (0 Bft) N 360 -4,1 C -1,6 C 0,0 km/h (0 Bft)
11.12.2017 07:26 -1,6 C -2,5 C 1,6 C -1,9 C 83 % 994,4 hPa 0,0 l/m 0,0 km/h (0 Bft) N-NO 22 -4,1 C -1,6 C 0,0 km/h (0 Bft)
11.12.2017 07:24 -1,6 C -2,5 C 1,6 C -1,8 C 83 % 994,4 hPa 0,0 l/m 0,0 km/h (0 Bft) O-NO 67 -4,1 C -1,6 C 0,0 km/h (0 Bft)
11.12.2017 07:22 -1,6 C -2,4 C 1,6 C -1,8 C 83 % 994,4 hPa 0,0 l/m 0,3 km/h (0 Bft) O-NO 67 -4,1 C -1,6 C 0,0 km/h (0 Bft)
11.12.2017 07:20 -1,6 C -2,4 C 1,6 C -1,8 C 83 % 994,4 hPa 0,0 l/m 0,3 km/h (0 Bft) O-SO 112 -4,1 C -1,6 C 0,0 km/h (0 Bft)
11.12.2017 07:18 -1,6 C -2,6 C 1,6 C -1,8 C 83 % 994,4 hPa 0,0 l/m 0,3 km/h (0 Bft) O-NO 67 -4,1 C -1,6 C 0,0 km/h (0 Bft)
11.12.2017 07:16 -1,4 C -2,6 C 1,6 C -1,8 C 83 % 994,4 hPa 0,0 l/m 0,3 km/h (0 Bft) S 180 -3,9 C -1,4 C 0,0 km/h (0 Bft)
11.12.2017 07:14 -1,4 C -2,5 C 1,6 C -1,7 C 82 % 994,4 hPa 0,0 l/m 0,3 km/h (0 Bft) W-SW 247 -4,1 C -1,4 C 3,1 km/h (1 Bft)
11.12.2017 07:12 -1,4 C -2,5 C 1,6 C -1,7 C 82 % 994,4 hPa 0,0 l/m 0,2 km/h (0 Bft) SW 225 -4,1 C -1,4 C 3,1 km/h (1 Bft)
11.12.2017 07:10 -1,4 C -2,5 C 1,6 C -1,7 C 82 % 994,4 hPa 0,0 l/m 0,0 km/h (0 Bft) O-NO 67 -4,1 C -1,4 C 0,0 km/h (0 Bft)
11.12.2017 07:08 -1,4 C -2,5 C 1,6 C -1,7 C 82 % 994,2 hPa 0,0 l/m 0,0 km/h (0 Bft) O-NO 67 -4,1 C -1,4 C 0,0 km/h (0 Bft)
11.12.2017 07:06 -1,4 C -2,6 C 1,6 C -1,7 C 82 % 994,2 hPa 0,0 l/m 0,0 km/h (0 Bft) O-NO 67 -4,1 C -1,4 C 0,0 km/h (0 Bft)
11.12.2017 07:04 -1,4 C -2,6 C 1,6 C -1,7 C 82 % 994,2 hPa 0,0 l/m 0,0 km/h (0 Bft) S-SO 157 -4,1 C -1,4 C 0,0 km/h (0 Bft)
11.12.2017 07:02 -1,4 C -2,5 C 1,6 C -1,6 C 82 % 994,2 hPa 0,0 l/m 0,0 km/h (0 Bft) S-SO 157 -4,1 C -1,4 C 0,0 km/h (0 Bft)
11.12.2017 07:00 -1,4 C -2,6 C 1,6 C -1,6 C 82 % 994,2 hPa 0,0 l/m 0,0 km/h (0 Bft) S 180 -4,1 C -1,4 C 0,0 km/h (0 Bft)
11.12.2017 06:58 -1,3 C -2,6 C 1,6 C -1,5 C 82 % 994,2 hPa 0,0 l/m 0,0 km/h (0 Bft) S 180 -4,0 C -1,3 C 0,0 km/h (0 Bft)
11.12.2017 06:56 -1,3 C -2,6 C 1,6 C -1,5 C 82 % 994,2 hPa 0,0 l/m 0,2 km/h (0 Bft) S 180 -4,0 C -1,3 C 0,0 km/h (0 Bft)
11.12.2017 06:54 -1,3 C -2,6 C 1,6 C -1,5 C 82 % 994,2 hPa 0,0 l/m 0,0 km/h (0 Bft) N-NO 22 -4,0 C -1,3 C 0,0 km/h (0 Bft)
11.12.2017 06:52 -1,3 C -2,5 C 1,6 C -1,5 C 82 % 994,2 hPa 0,0 l/m 0,0 km/h (0 Bft) N-NO 22 -4,0 C -1,3 C 0,0 km/h (0 Bft)
11.12.2017 06:50 -1,2 C -2,5 C 1,6 C -1,4 C 82 % 994,2 hPa 0,0 l/m 0,0 km/h (0 Bft) N-NO 22 -3,9 C -1,2 C 0,0 km/h (0 Bft)
11.12.2017 06:48 -1,2 C -2,5 C 1,6 C -1,4 C 82 % 994,3 hPa 0,0 l/m 0,2 km/h (0 Bft) N-NO 22 -3,9 C -1,2 C 0,0 km/h (0 Bft)
11.12.2017 06:46 -1,2 C -2,5 C 1,6 C -1,3 C 82 % 994,3 hPa 0,0 l/m 0,2 km/h (0 Bft) N-NW 337 -3,9 C -1,2 C 0,0 km/h (0 Bft)
11.12.2017 06:44 -1,2 C -2,6 C 1,6 C -1,3 C 82 % 994,3 hPa 0,0 l/m 0,2 km/h (0 Bft) N-NW 337 -3,9 C -1,2 C 0,0 km/h (0 Bft)
11.12.2017 06:43 -1,2 C -2,4 C 1,6 C -1,3 C 82 % 994,3 hPa 0,0 l/m 0,2 km/h (0 Bft) SO 135 -3,9 C -1,2 C 0,0 km/h (0 Bft)
11.12.2017 06:40 -1,0 C -2,4 C 1,6 C -1,3 C 82 % 994,3 hPa 0,0 l/m 0,2 km/h (0 Bft) SO 135 -3,7 C -1,0 C 0,0 km/h (0 Bft)
11.12.2017 06:38 -1,0 C -2,3 C 1,6 C -1,3 C 82 % 994,3 hPa 0,0 l/m 0,2 km/h (0 Bft) S 180 -3,7 C -1,0 C 0,0 km/h (0 Bft)
11.12.2017 06:36 -1,0 C -2,4 C 1,6 C -1,2 C 82 % 994,3 hPa 0,0 l/m 0,3 km/h (0 Bft) S 180 -3,7 C -1,0 C 0,0 km/h (0 Bft)
11.12.2017 06:34 -1,0 C -2,1 C 1,6 C -1,2 C 82 % 994,3 hPa 0,0 l/m 0,2 km/h (0 Bft) S-SO 157 -3,7 C -1,0 C 0,0 km/h (0 Bft)
11.12.2017 06:32 -1,0 C -2,3 C 1,6 C -1,2 C 82 % 994,3 hPa 0,0 l/m 0,2 km/h (0 Bft) N-NW 337 -3,7 C -1,0 C 0,0 km/h (0 Bft)
11.12.2017 06:30 -0,9 C -2,3 C 1,6 C -1,2 C 82 % 994,3 hPa 0,0 l/m 0,2 km/h (0 Bft) N-NW 337 -3,6 C -0,9 C 0,0 km/h (0 Bft)
11.12.2017 06:28 -0,9 C -2,3 C 1,6 C -1,1 C 82 % 994,3 hPa 0,0 l/m 0,3 km/h (0 Bft) N-NW 337 -3,6 C -0,9 C 2,5 km/h (1 Bft)
11.12.2017 06:26 -0,9 C -2,1 C 1,6 C -1,1 C 82 % 994,3 hPa 0,0 l/m 0,3 km/h (0 Bft) SO 135 -3,6 C -0,9 C 2,5 km/h (1 Bft)
11.12.2017 06:24 -0,8 C -2,0 C 1,6 C -1,1 C 82 % 994,3 hPa 0,0 l/m 0,2 km/h (0 Bft) W-NW 292 -3,5 C -0,8 C 0,0 km/h (0 Bft)
11.12.2017 06:22 -0,8 C -1,9 C 1,6 C -1,1 C 82 % 994,3 hPa 0,0 l/m 0,3 km/h (0 Bft) NO 45 -3,5 C -0,8 C 0,0 km/h (0 Bft)
11.12.2017 06:20 -0,8 C -2,0 C 1,6 C -1,0 C 82 % 994,3 hPa 0,0 l/m 0,3 km/h (0 Bft) O-NO 67 -3,5 C -0,8 C 0,0 km/h (0 Bft)
11.12.2017 06:18 -0,6 C -2,1 C 1,6 C -1,0 C 82 % 994,3 hPa 0,0 l/m 0,3 km/h (0 Bft) N-NO 22 -3,3 C -0,6 C 0,0 km/h (0 Bft)
11.12.2017 06:16 -0,6 C -2,0 C 1,6 C -1,0 C 82 % 994,3 hPa 0,0 l/m 0,2 km/h (0 Bft) O-SO 112 -3,3 C -0,6 C 0,0 km/h (0 Bft)
11.12.2017 06:14 -0,6 C -1,9 C 1,6 C -0,9 C 82 % 994,3 hPa 0,0 l/m 0,2 km/h (0 Bft) O-SO 112 -3,3 C -0,6 C 0,0 km/h (0 Bft)
11.12.2017 06:12 -0,5 C -1,9 C 1,6 C -0,8 C 82 % 994,3 hPa 0,0 l/m 0,2 km/h (0 Bft) S-SO 157 -3,2 C -0,5 C 3,7 km/h (1 Bft)
11.12.2017 06:10 -0,2 C -1,9 C 1,6 C -0,8 C 82 % 994,3 hPa 0,0 l/m 0,3 km/h (0 Bft) W-SW 247 -2,9 C -0,2 C 3,7 km/h (1 Bft)
11.12.2017 06:08 -0,2 C -1,9 C 1,6 C -0,8 C 82 % 994,1 hPa 0,0 l/m 0,3 km/h (0 Bft) W-SW 247 -2,9 C -0,2 C 3,7 km/h (1 Bft)
11.12.2017 06:06 -0,2 C -1,9 C 1,6 C -0,8 C 82 % 994,1 hPa 0,0 l/m 0,3 km/h (0 Bft) W-SW 247 -2,9 C -0,2 C 3,7 km/h (1 Bft)
11.12.2017 06:04 -0,2 C -1,9 C 1,6 C -0,8 C 82 % 994,1 hPa 0,0 l/m 0,3 km/h (0 Bft) W-SW 247 -2,9 C -0,2 C 3,7 km/h (1 Bft)
11.12.2017 06:02 -0,2 C -1,9 C 1,6 C -0,8 C 82 % 994,1 hPa 0,0 l/m 0,3 km/h (0 Bft) W-SW 247 -2,9 C -0,2 C 3,9 km/h (1 Bft)
11.12.2017 06:00 -0,2 C -1,9 C 1,6 C -0,8 C 82 % 994,1 hPa 0,0 l/m 0,2 km/h (0 Bft) W-SW 247 -2,9 C -0,2 C 3,9 km/h (1 Bft)
11.12.2017 05:58 -0,2 C -1,6 C 1,6 C -0,8 C 82 % 994,1 hPa 0,0 l/m 0,0 km/h (0 Bft) SO 135 -2,9 C -0,2 C 0,0 km/h (0 Bft)
11.12.2017 05:56 -0,2 C -1,5 C 1,6 C -0,8 C 82 % 994,1 hPa 0,0 l/m 0,0 km/h (0 Bft) S-SO 157 -2,9 C -0,2 C 0,0 km/h (0 Bft)
11.12.2017 05:54 -0,2 C -1,5 C 1,6 C -0,8 C 82 % 994,1 hPa 0,0 l/m 0,0 km/h (0 Bft) O-SO 112 -2,9 C -0,2 C 0,0 km/h (0 Bft)
11.12.2017 05:52 -0,2 C -1,5 C 1,6 C -0,7 C 82 % 994,1 hPa 0,0 l/m 0,0 km/h (0 Bft) S-SW 202 -2,9 C -0,2 C 0,0 km/h (0 Bft)
11.12.2017 05:50 -0,2 C -1,1 C 1,6 C -0,7 C 82 % 994,1 hPa 0,0 l/m 0,0 km/h (0 Bft) W 270 -2,9 C -0,2 C 0,0 km/h (0 Bft)
11.12.2017 05:48 -0,2 C -1,1 C 1,6 C -0,7 C 82 % 993,9 hPa 0,0 l/m 0,0 km/h (0 Bft) W-SW 247 -2,9 C -0,2 C 0,0 km/h (0 Bft)
11.12.2017 05:46 -0,2 C -1,1 C 1,6 C -0,7 C 82 % 993,9 hPa 0,0 l/m 0,0 km/h (0 Bft) O-NO 67 -2,9 C -0,2 C 0,0 km/h (0 Bft)
11.12.2017 05:44 -0,2 C -1,1 C 1,6 C -0,7 C 82 % 993,9 hPa 0,0 l/m 0,2 km/h (0 Bft) O-NO 67 -2,9 C -0,2 C 0,0 km/h (0 Bft)
11.12.2017 05:42 -0,2 C -1,3 C 1,6 C -0,7 C 82 % 993,9 hPa 0,0 l/m 0,2 km/h (0 Bft) NO 45 -2,9 C -0,2 C 0,0 km/h (0 Bft)
11.12.2017 05:40 -0,1 C -1,1 C 1,5 C -0,7 C 82 % 993,9 hPa 0,0 l/m 0,2 km/h (0 Bft) S 180 -2,8 C -0,1 C 0,0 km/h (0 Bft)
11.12.2017 05:38 -0,1 C -1,0 C 1,5 C -0,7 C 82 % 993,9 hPa 0,0 l/m 0,2 km/h (0 Bft) S 180 -2,8 C -0,1 C 0,0 km/h (0 Bft)
11.12.2017 05:36 -0,2 C -0,8 C 1,5 C -0,7 C 82 % 993,9 hPa 0,0 l/m 0,2 km/h (0 Bft) S 180 -2,9 C -0,2 C 0,0 km/h (0 Bft)
11.12.2017 05:34 -0,2 C -0,8 C 1,5 C -0,7 C 82 % 993,9 hPa 0,0 l/m 0,2 km/h (0 Bft) W-SW 247 -2,9 C -0,2 C 0,0 km/h (0 Bft)
11.12.2017 05:32 -0,2 C -0,8 C 1,5 C -0,7 C 82 % 993,9 hPa 0,0 l/m 0,2 km/h (0 Bft) S-SO 157 -2,9 C -0,2 C 0,0 km/h (0 Bft)
11.12.2017 05:30 -0,2 C -0,9 C 1,5 C -0,8 C 82 % 993,9 hPa 0,0 l/m 0,2 km/h (0 Bft) S-SO 157 -2,9 C -0,2 C 0,0 km/h (0 Bft)
11.12.2017 05:29 -0,2 C -0,9 C 1,6 C -0,8 C 82 % 994,6 hPa 0,0 l/m 0,2 km/h (0 Bft) S-SO 157 -2,9 C -0,2 C 0,0 km/h (0 Bft)
11.12.2017 05:26 -0,2 C -1,0 C 1,5 C -0,8 C 82 % 994,6 hPa 0,0 l/m 0,0 km/h (0 Bft) S-SO 157 -2,9 C -0,2 C 2,3 km/h (1 Bft)
11.12.2017 05:24 -0,2 C -0,9 C 1,5 C -0,8 C 82 % 994,6 hPa 0,0 l/m 0,0 km/h (0 Bft) N-NO 22 -2,9 C -0,2 C 0,0 km/h (0 Bft)
11.12.2017 05:22 -0,2 C -0,8 C 1,5 C -0,8 C 82 % 994,6 hPa 0,0 l/m 0,0 km/h (0 Bft) N-NO 22 -2,9 C -0,2 C 0,0 km/h (0 Bft)
11.12.2017 05:20 -0,1 C -1,0 C 1,5 C -0,8 C 82 % 994,6 hPa 0,0 l/m 0,0 km/h (0 Bft) S 180 -2,8 C -0,1 C 0,0 km/h (0 Bft)
11.12.2017 05:18 -0,1 C -1,0 C 1,5 C -0,8 C 82 % 994,6 hPa 0,0 l/m 0,2 km/h (0 Bft) N 360 -2,8 C -0,1 C 0,0 km/h (0 Bft)
11.12.2017 05:16 -0,1 C -0,9 C 1,5 C -0,8 C 82 % 994,6 hPa 0,0 l/m 0,2 km/h (0 Bft) N 360 -2,8 C -0,1 C 0,0 km/h (0 Bft)
11.12.2017 05:14 -0,1 C -0,8 C 1,5 C -0,8 C 82 % 994,6 hPa 0,0 l/m 0,2 km/h (0 Bft) SO 135 -2,8 C -0,1 C 0,0 km/h (0 Bft)
11.12.2017 05:12 0,0 C -0,8 C 1,5 C -0,8 C 82 % 994,6 hPa 0,0 l/m 0,5 km/h (0 Bft) SO 135 -2,7 C 0,0 C 0,0 km/h (0 Bft)
11.12.2017 05:10 0,0 C -0,9 C 1,5 C -0,9 C 82 % 994,6 hPa 0,0 l/m 0,5 km/h (0 Bft) SO 135 -2,7 C 0,0 C 1,9 km/h (1 Bft)
11.12.2017 05:08 0,0 C -0,9 C 1,5 C -0,9 C 82 % 994,8 hPa 0,0 l/m 0,5 km/h (0 Bft) S-SO 157 -2,7 C 0,0 C 1,9 km/h (1 Bft)
11.12.2017 05:06 0,0 C -0,8 C 1,5 C -0,9 C 82 % 994,8 hPa 0,0 l/m 0,6 km/h (0 Bft) SO 135 -2,7 C 0,0 C 1,9 km/h (1 Bft)
11.12.2017 05:04 0,0 C -0,8 C 1,5 C -0,9 C 82 % 994,8 hPa 0,0 l/m 0,6 km/h (0 Bft) O-SO 112 -2,7 C 0,0 C 4,6 km/h (1 Bft)
11.12.2017 05:01 0,0 C -0,6 C 1,5 C -1,0 C 83 % 994,8 hPa 0,0 l/m 0,6 km/h (0 Bft) S 180 -2,5 C 0,0 C 4,6 km/h (1 Bft)
11.12.2017 05:00 -0,1 C -0,6 C 1,5 C -1,0 C 83 % 994,8 hPa 0,0 l/m 0,5 km/h (0 Bft) S-SO 157 -2,6 C -0,1 C 0,0 km/h (0 Bft)
11.12.2017 04:58 -0,1 C -0,6 C 1,5 C -1,0 C 83 % 994,8 hPa 0,0 l/m 0,5 km/h (0 Bft) S-SO 157 -2,6 C -0,1 C 4,6 km/h (1 Bft)
11.12.2017 04:56 -0,1 C -0,8 C 1,5 C -1,0 C 83 % 994,8 hPa 0,0 l/m 0,6 km/h (0 Bft) SO 135 -2,6 C -0,1 C 4,6 km/h (1 Bft)
11.12.2017 04:54 -0,1 C -0,6 C 1,5 C -1,1 C 83 % 994,8 hPa 0,0 l/m 0,6 km/h (0 Bft) S-SW 202 -2,6 C -0,1 C 3,5 km/h (1 Bft)
11.12.2017 04:52 -0,2 C -0,6 C 1,6 C -1,1 C 83 % 994,8 hPa 0,0 l/m 0,6 km/h (0 Bft) SO 135 -2,7 C -0,2 C 3,5 km/h (1 Bft)
11.12.2017 04:50 -0,4 C -0,4 C 1,6 C -1,1 C 83 % 994,8 hPa 0,0 l/m 0,5 km/h (0 Bft) O-SO 112 -2,9 C -0,4 C 2,3 km/h (1 Bft)
11.12.2017 04:48 -0,4 C -0,4 C 1,5 C -1,2 C 83 % 994,8 hPa 0,0 l/m 0,5 km/h (0 Bft) SO 135 -2,9 C -0,4 C 2,3 km/h (1 Bft)
11.12.2017 04:46 -0,4 C -0,8 C 1,5 C -1,2 C 83 % 994,8 hPa 0,0 l/m 0,8 km/h (0 Bft) SO 135 -2,9 C -0,4 C 1,9 km/h (1 Bft)
11.12.2017 04:44 -0,5 C -0,9 C 1,5 C -1,2 C 83 % 994,8 hPa 0,0 l/m 0,6 km/h (0 Bft) SO 135 -3,0 C -0,5 C 2,5 km/h (1 Bft)
11.12.2017 04:42 -0,4 C -1,0 C 1,5 C -1,2 C 83 % 994,8 hPa 0,0 l/m 0,5 km/h (0 Bft) S-SO 157 -2,9 C -0,4 C 2,5 km/h (1 Bft)
11.12.2017 04:40 -0,4 C -1,1 C 1,5 C -1,3 C 83 % 994,8 hPa 0,0 l/m 0,6 km/h (0 Bft) S 180 -2,9 C -0,4 C 2,1 km/h (1 Bft)
11.12.2017 04:38 -0,4 C -1,1 C 1,6 C -1,3 C 83 % 994,8 hPa 0,0 l/m 0,5 km/h (0 Bft) O-SO 112 -2,9 C -0,4 C 4,4 km/h (1 Bft)
11.12.2017 04:36 -0,4 C -1,0 C 1,6 C -1,3 C 83 % 994,8 hPa 0,0 l/m 0,5 km/h (0 Bft) S-SO 157 -2,9 C -0,4 C 4,4 km/h (1 Bft)
11.12.2017 04:34 -0,4 C -1,0 C 1,5 C -1,3 C 83 % 994,8 hPa 0,0 l/m 0,3 km/h (0 Bft) S-SO 157 -2,9 C -0,4 C 0,0 km/h (0 Bft)
11.12.2017 04:32 -0,5 C -1,0 C 1,5 C -1,3 C 83 % 994,8 hPa 0,0 l/m 0,2 km/h (0 Bft) S-SO 157 -3,0 C -0,5 C 3,5 km/h (1 Bft)
11.12.2017 04:30 -0,6 C -0,9 C 1,5 C -1,3 C 83 % 994,8 hPa 0,0 l/m 0,2 km/h (0 Bft) SW 225 -3,1 C -0,6 C 3,5 km/h (1 Bft)
11.12.2017 04:28 -0,6 C -0,9 C 1,5 C -1,3 C 83 % 994,5 hPa 0,0 l/m 0,2 km/h (0 Bft) S-SW 202 -3,1 C -0,6 C 0,0 km/h (0 Bft)
11.12.2017 04:26 -0,6 C -1,1 C 1,6 C -1,4 C 83 % 994,5 hPa 0,0 l/m 0,5 km/h (0 Bft) S-SO 157 -3,1 C -0,6 C 0,0 km/h (0 Bft)
11.12.2017 04:24 -0,6 C -1,1 C 1,5 C -1,4 C 83 % 994,5 hPa 0,0 l/m 0,5 km/h (0 Bft) S-SO 157 -3,1 C -0,6 C 0,0 km/h (0 Bft)
11.12.2017 04:22 -0,6 C -1,0 C 1,5 C -1,4 C 83 % 994,5 hPa 0,0 l/m 0,5 km/h (0 Bft) S-SO 157 -3,1 C -0,6 C 0,0 km/h (0 Bft)
11.12.2017 04:20 -0,6 C -1,0 C 1,5 C -1,4 C 83 % 994,5 hPa 0,0 l/m 0,5 km/h (0 Bft) S-SO 157 -3,1 C -0,6 C 2,9 km/h (1 Bft)
11.12.2017 04:18 -0,6 C -1,3 C 1,5 C -1,4 C 83 % 994,5 hPa 0,0 l/m 0,5 km/h (0 Bft) W-SW 247 -3,1 C -0,6 C 2,9 km/h (1 Bft)
11.12.2017 04:16 -0,8 C -1,3 C 1,6 C -1,4 C 83 % 994,5 hPa 0,0 l/m 0,2 km/h (0 Bft) W-NW 292 -3,3 C -0,8 C 1,9 km/h (1 Bft)
11.12.2017 04:14 -0,8 C -1,1 C 1,6 C -1,4 C 83 % 994,5 hPa 0,0 l/m 0,2 km/h (0 Bft) S-SO 157 -3,3 C -0,8 C 2,7 km/h (1 Bft)
11.12.2017 04:12 -0,8 C -1,1 C 1,6 C -1,4 C 83 % 994,5 hPa 0,0 l/m 0,2 km/h (0 Bft) S-SO 157 -3,3 C -0,8 C 2,7 km/h (1 Bft)
11.12.2017 04:10 -0,8 C -1,1 C 1,6 C -1,4 C 83 % 994,5 hPa 0,0 l/m 0,2 km/h (0 Bft) SO 135 -3,3 C -0,8 C 0,0 km/h (0 Bft)
11.12.2017 04:08 -0,8 C -1,1 C 1,6 C -1,5 C 83 % 994,5 hPa 0,0 l/m 0,2 km/h (0 Bft) S-SO 157 -3,3 C -0,8 C 0,0 km/h (0 Bft)
11.12.2017 04:06 -0,8 C -1,1 C 1,6 C -1,5 C 83 % 994,5 hPa 0,0 l/m 0,2 km/h (0 Bft) W 270 -3,3 C -0,8 C 0,0 km/h (0 Bft)
11.12.2017 04:04 -0,8 C -1,1 C 1,5 C -1,5 C 83 % 994,5 hPa 0,0 l/m 0,3 km/h (0 Bft) S-SO 157 -3,3 C -0,8 C 0,0 km/h (0 Bft)
11.12.2017 04:02 -0,9 C -1,1 C 1,6 C -1,5 C 83 % 994,5 hPa 0,0 l/m 0,3 km/h (0 Bft) O-NO 67 -3,4 C -0,9 C 0,0 km/h (0 Bft)
11.12.2017 04:00 -0,9 C -1,3 C 1,5 C -1,5 C 83 % 994,5 hPa 0,0 l/m 0,2 km/h (0 Bft) NW 315 -3,4 C -0,9 C 0,0 km/h (0 Bft)
11.12.2017 03:59 -0,9 C -1,3 C 1,6 C -1,5 C 84 % 994,5 hPa 0,0 l/m 0,2 km/h (0 Bft) W-NW 292 -3,3 C -0,9 C 0,0 km/h (0 Bft)
11.12.2017 03:56 -0,9 C -1,2 C 1,5 C -1,6 C 84 % 994,5 hPa 0,0 l/m 0,3 km/h (0 Bft) NO 45 -3,3 C -0,9 C 3,5 km/h (1 Bft)
11.12.2017 03:54 -1,0 C -1,2 C 1,5 C -1,7 C 84 % 994,5 hPa 0,0 l/m 0,6 km/h (0 Bft) SO 135 -3,4 C -1,0 C 5,8 km/h (2 Bft)
11.12.2017 03:52 -1,0 C -1,4 C 1,5 C -1,7 C 84 % 994,5 hPa 0,0 l/m 0,6 km/h (0 Bft) O-NO 67 -3,4 C -1,0 C 0,0 km/h (0 Bft)
11.12.2017 03:50 -1,2 C -1,4 C 1,5 C -1,7 C 84 % 994,5 hPa 0,0 l/m 0,6 km/h (0 Bft) W-SW 247 -3,5 C -1,2 C 0,0 km/h (0 Bft)
11.12.2017 03:48 -1,2 C -1,4 C 1,5 C -1,7 C 84 % 994,6 hPa 0,0 l/m 0,6 km/h (0 Bft) SO 135 -3,5 C -1,2 C 0,0 km/h (0 Bft)
11.12.2017 03:46 -1,2 C -1,4 C 1,5 C -1,7 C 84 % 994,6 hPa 0,0 l/m 0,6 km/h (0 Bft) S-SO 157 -3,5 C -1,2 C 3,3 km/h (1 Bft)
11.12.2017 03:44 -1,3 C -1,5 C 1,6 C -1,8 C 83 % 994,6 hPa 0,0 l/m 0,6 km/h (0 Bft) S-SO 157 -3,8 C -1,3 C 3,3 km/h (1 Bft)
11.12.2017 03:42 -1,3 C -1,6 C 1,6 C -1,8 C 83 % 994,6 hPa 0,0 l/m 0,3 km/h (0 Bft) S 180 -3,8 C -1,3 C 0,0 km/h (0 Bft)
11.12.2017 03:40 -1,4 C -1,7 C 1,6 C -1,8 C 83 % 994,6 hPa 0,0 l/m 0,3 km/h (0 Bft) S-SO 157 -3,9 C -1,4 C 0,0 km/h (0 Bft)
11.12.2017 03:39 -1,4 C -1,7 C 1,6 C -1,9 C 83 % 994,6 hPa 0,0 l/m 0,2 km/h (0 Bft) S-SO 157 -3,9 C -1,4 C 1,9 km/h (1 Bft)
11.12.2017 03:36 -1,4 C -1,6 C 1,6 C -1,9 C 83 % 994,6 hPa 0,0 l/m 0,2 km/h (0 Bft) S-SO 157 -3,9 C -1,4 C 2,5 km/h (1 Bft)
11.12.2017 03:34 -1,4 C -2,2 C 1,6 C -1,9 C 83 % 994,6 hPa 0,0 l/m 0,3 km/h (0 Bft) SO 135 -3,9 C -1,4 C 2,5 km/h (1 Bft)
11.12.2017 03:32 -1,4 C -2,2 C 1,6 C -1,8 C 83 % 994,6 hPa 0,0 l/m 0,6 km/h (0 Bft) O-SO 112 -3,9 C -1,4 C 0,0 km/h (0 Bft)
11.12.2017 03:30 -1,4 C -2,1 C 1,6 C -1,8 C 83 % 994,6 hPa 0,0 l/m 0,6 km/h (0 Bft) W-SW 247 -3,9 C -1,4 C 0,0 km/h (0 Bft)
11.12.2017 03:28 -1,4 C -2,1 C 1,6 C -1,8 C 83 % 994,7 hPa 0,0 l/m 0,6 km/h (0 Bft) SO 135 -3,9 C -1,4 C 0,0 km/h (0 Bft)
11.12.2017 03:26 -1,4 C -2,2 C 1,6 C -1,8 C 83 % 994,7 hPa 0,0 l/m 0,6 km/h (0 Bft) O-NO 67 -3,9 C -1,4 C 3,5 km/h (1 Bft)
11.12.2017 03:24 -1,4 C -2,5 C 1,6 C -1,8 C 83 % 994,7 hPa 0,0 l/m 0,6 km/h (0 Bft) NW 315 -3,9 C -1,4 C 3,7 km/h (1 Bft)
11.12.2017 03:22 -1,4 C -2,5 C 1,6 C -1,8 C 83 % 994,7 hPa 0,0 l/m 0,5 km/h (0 Bft) W-SW 247 -3,9 C -1,4 C 3,7 km/h (1 Bft)
11.12.2017 03:20 -1,4 C -2,4 C 1,6 C -1,8 C 83 % 994,7 hPa 0,0 l/m 0,3 km/h (0 Bft) SO 135 -3,9 C -1,4 C 0,0 km/h (0 Bft)
11.12.2017 03:18 -1,4 C -2,4 C 1,6 C -1,7 C 83 % 994,7 hPa 0,0 l/m 0,3 km/h (0 Bft) SO 135 -3,9 C -1,4 C 0,0 km/h (0 Bft)
11.12.2017 03:16 -1,3 C -2,2 C 1,6 C -1,7 C 83 % 994,7 hPa 0,0 l/m 0,3 km/h (0 Bft) SO 135 -3,8 C -1,3 C 0,0 km/h (0 Bft)
11.12.2017 03:14 -1,3 C -2,4 C 1,6 C -1,7 C 83 % 994,7 hPa 0,0 l/m 0,3 km/h (0 Bft) N-NO 22 -3,8 C -1,3 C 0,0 km/h (0 Bft)
11.12.2017 03:12 -1,3 C -2,4 C 1,6 C -1,7 C 83 % 994,7 hPa 0,0 l/m 0,5 km/h (0 Bft) O-SO 112 -3,8 C -1,3 C 0,0 km/h (0 Bft)
11.12.2017 03:10 -1,2 C -2,7 C 1,6 C -1,7 C 83 % 994,7 hPa 0,0 l/m 0,3 km/h (0 Bft) SO 135 -3,7 C -1,2 C 0,0 km/h (0 Bft)
11.12.2017 03:09 -1,2 C -2,7 C 1,6 C -1,7 C 83 % 994,6 hPa 0,0 l/m 0,3 km/h (0 Bft) W-SW 247 -3,7 C -1,2 C 0,0 km/h (0 Bft)
11.12.2017 03:06 -1,2 C -2,7 C 1,6 C -1,7 C 83 % 994,6 hPa 0,0 l/m 0,3 km/h (0 Bft) W 270 -3,7 C -1,2 C 0,0 km/h (0 Bft)
11.12.2017 03:04 -1,2 C -2,5 C 1,6 C -1,6 C 83 % 994,6 hPa 0,0 l/m 0,3 km/h (0 Bft) W 270 -3,7 C -1,2 C 0,0 km/h (0 Bft)
11.12.2017 03:02 -1,2 C -2,4 C 1,6 C -1,6 C 83 % 994,6 hPa 0,0 l/m 0,3 km/h (0 Bft) S 180 -3,7 C -1,2 C 0,0 km/h (0 Bft)
11.12.2017 03:00 -1,2 C -2,2 C 1,6 C -1,6 C 83 % 994,6 hPa 0,0 l/m 0,3 km/h (0 Bft) SO 135 -3,7 C -1,2 C 0,0 km/h (0 Bft)
11.12.2017 02:58 -1,2 C -2,1 C 1,6 C -1,6 C 83 % 994,6 hPa 0,0 l/m 0,3 km/h (0 Bft) O-NO 67 -3,7 C -1,2 C 0,0 km/h (0 Bft)
11.12.2017 02:56 -1,2 C -2,1 C 1,6 C -1,6 C 83 % 994,6 hPa 0,0 l/m 0,5 km/h (0 Bft) O-NO 67 -3,7 C -1,2 C 0,0 km/h (0 Bft)
11.12.2017 02:54 -1,2 C -2,2 C 1,6 C -1,6 C 83 % 994,6 hPa 0,0 l/m 0,5 km/h (0 Bft) O-NO 67 -3,7 C -1,2 C 0,0 km/h (0 Bft)
11.12.2017 02:52 -1,2 C -2,4 C 1,6 C -1,6 C 83 % 994,6 hPa 0,0 l/m 0,8 km/h (0 Bft) S-SO 157 -3,7 C -1,2 C 0,0 km/h (0 Bft)
11.12.2017 02:50 -1,2 C -2,2 C 1,6 C -1,6 C 83 % 994,6 hPa 0,0 l/m 0,8 km/h (0 Bft) W-NW 292 -3,7 C -1,2 C 0,0 km/h (0 Bft)
11.12.2017 02:49 -1,2 C -2,2 C 1,6 C -1,6 C 83 % 994,6 hPa 0,0 l/m 0,8 km/h (0 Bft) SW 225 -3,7 C -1,2 C 0,0 km/h (0 Bft)
11.12.2017 02:46 -1,2 C -1,9 C 1,6 C -1,6 C 83 % 994,6 hPa 0,0 l/m 0,6 km/h (0 Bft) S-SW 202 -3,7 C -1,2 C 2,5 km/h (1 Bft)
11.12.2017 02:44 -1,2 C -2,1 C 1,6 C -1,6 C 83 % 994,6 hPa 0,0 l/m 0,6 km/h (0 Bft) N-NO 22 -3,7 C -1,2 C 3,1 km/h (1 Bft)
11.12.2017 02:42 -1,2 C -2,1 C 1,6 C -1,6 C 83 % 994,6 hPa 0,0 l/m 0,5 km/h (0 Bft) NW 315 -3,7 C -1,2 C 3,1 km/h (1 Bft)
11.12.2017 02:40 -1,2 C -2,4 C 1,6 C -1,6 C 83 % 994,6 hPa 0,0 l/m 0,2 km/h (0 Bft) W-SW 247 -3,7 C -1,2 C 3,1 km/h (1 Bft)
11.12.2017 02:38 -1,2 C -2,1 C 1,6 C -1,5 C 83 % 994,6 hPa 0,0 l/m 0,0 km/h (0 Bft) SO 135 -3,7 C -1,2 C 0,0 km/h (0 Bft)
11.12.2017 02:36 -1,2 C -2,2 C 1,6 C -1,5 C 83 % 994,6 hPa 0,0 l/m 0,0 km/h (0 Bft) SO 135 -3,7 C -1,2 C 0,0 km/h (0 Bft)
11.12.2017 02:34 -1,2 C -2,2 C 1,6 C -1,5 C 83 % 994,6 hPa 0,0 l/m 0,0 km/h (0 Bft) SO 135 -3,7 C -1,2 C 0,0 km/h (0 Bft)
11.12.2017 02:32 -1,2 C -2,1 C 1,6 C -1,5 C 83 % 994,6 hPa 0,0 l/m 0,0 km/h (0 Bft) SO 135 -3,7 C -1,2 C 0,0 km/h (0 Bft)
11.12.2017 02:30 -1,0 C -2,4 C 1,6 C -1,5 C 83 % 994,6 hPa 0,0 l/m 0,0 km/h (0 Bft) SO 135 -3,5 C -1,0 C 0,0 km/h (0 Bft)
11.12.2017 02:29 -1,0 C -2,4 C 1,6 C -1,4 C 83 % 994,1 hPa 0,0 l/m 0,2 km/h (0 Bft) SO 135 -3,5 C -1,0 C 0,0 km/h (0 Bft)
11.12.2017 02:26 -1,0 C -2,4 C 1,6 C -1,4 C 83 % 994,1 hPa 0,0 l/m 0,2 km/h (0 Bft) SO 135 -3,5 C -1,0 C 0,0 km/h (0 Bft)
11.12.2017 02:24 -1,0 C -2,3 C 1,6 C -1,4 C 83 % 994,1 hPa 0,0 l/m 0,6 km/h (0 Bft) SO 135 -3,5 C -1,0 C 0,0 km/h (0 Bft)
11.12.2017 02:22 -1,0 C -2,1 C 1,6 C -1,4 C 83 % 994,1 hPa 0,0 l/m 0,6 km/h (0 Bft) W 270 -3,5 C -1,0 C 0,0 km/h (0 Bft)
11.12.2017 02:20 -1,0 C -1,9 C 1,6 C -1,4 C 83 % 994,1 hPa 0,0 l/m 0,6 km/h (0 Bft) S-SO 157 -3,5 C -1,0 C 2,5 km/h (1 Bft)
11.12.2017 02:18 -1,0 C -1,8 C 1,6 C -1,4 C 83 % 994,1 hPa 0,0 l/m 0,5 km/h (0 Bft) O-NO 67 -3,5 C -1,0 C 2,5 km/h (1 Bft)
11.12.2017 02:16 -1,0 C -2,1 C 1,5 C -1,4 C 83 % 994,1 hPa 0,0 l/m 0,3 km/h (0 Bft) S-SO 157 -3,5 C -1,0 C 4,1 km/h (1 Bft)
11.12.2017 02:14 -0,9 C -2,0 C 1,6 C -1,4 C 83 % 994,1 hPa 0,0 l/m 0,3 km/h (0 Bft) SW 225 -3,4 C -0,9 C 4,1 km/h (1 Bft)
11.12.2017 02:12 -0,9 C -2,0 C 1,6 C -1,4 C 83 % 994,1 hPa 0,0 l/m 0,0 km/h (0 Bft) S-SO 157 -3,4 C -0,9 C 0,0 km/h (0 Bft)
11.12.2017 02:10 -0,9 C -2,1 C 1,6 C -1,4 C 83 % 994,1 hPa 0,0 l/m 0,0 km/h (0 Bft) S 180 -3,4 C -0,9 C 0,0 km/h (0 Bft)
11.12.2017 02:08 -0,9 C -2,1 C 1,6 C -1,4 C 83 % 995,1 hPa 0,0 l/m 0,2 km/h (0 Bft) S 180 -3,4 C -0,9 C 0,0 km/h (0 Bft)
11.12.2017 02:06 -1,0 C -1,9 C 1,6 C -1,4 C 83 % 995,1 hPa 0,0 l/m 0,2 km/h (0 Bft) S-SO 157 -3,5 C -1,0 C 0,0 km/h (0 Bft)
11.12.2017 02:04 -1,0 C -1,6 C 1,6 C -1,4 C 83 % 995,1 hPa 0,0 l/m 0,2 km/h (0 Bft) SO 135 -3,5 C -1,0 C 0,0 km/h (0 Bft)
11.12.2017 02:02 -1,0 C -1,6 C 1,6 C -1,4 C 83 % 995,1 hPa 0,0 l/m 0,2 km/h (0 Bft) S-SO 157 -3,5 C -1,0 C 0,0 km/h (0 Bft)
11.12.2017 02:00 -1,0 C -1,6 C 1,6 C -1,4 C 83 % 995,1 hPa 0,0 l/m 0,2 km/h (0 Bft) N-NO 22 -3,5 C -1,0 C 2,7 km/h (1 Bft)
11.12.2017 01:58 -1,0 C -1,8 C 1,6 C -1,4 C 83 % 995,1 hPa 0,0 l/m 0,2 km/h (0 Bft) N-NO 22 -3,5 C -1,0 C 2,7 km/h (1 Bft)
11.12.2017 01:56 -1,0 C -1,6 C 1,6 C -1,4 C 83 % 995,1 hPa 0,0 l/m 0,2 km/h (0 Bft) S-SO 157 -3,5 C -1,0 C 0,0 km/h (0 Bft)
11.12.2017 01:54 -1,0 C -1,6 C 1,6 C -1,4 C 83 % 995,1 hPa 0,0 l/m 0,2 km/h (0 Bft) S 180 -3,5 C -1,0 C 0,0 km/h (0 Bft)
11.12.2017 01:52 -0,9 C -1,8 C 1,6 C -1,4 C 83 % 995,1 hPa 0,0 l/m 0,2 km/h (0 Bft) S 180 -3,4 C -0,9 C 1,9 km/h (1 Bft)
11.12.2017 01:50 -0,9 C -1,6 C 1,6 C -1,4 C 83 % 995,1 hPa 0,0 l/m 0,2 km/h (0 Bft) SW 225 -3,4 C -0,9 C 1,9 km/h (1 Bft)
11.12.2017 01:49 -0,9 C -1,6 C 1,6 C -1,4 C 83 % 995,0 hPa 0,0 l/m 0,5 km/h (0 Bft) N-NO 22 -3,4 C -0,9 C 0,0 km/h (0 Bft)
11.12.2017 01:46 -0,9 C -1,6 C 1,6 C -1,4 C 83 % 995,0 hPa 0,0 l/m 0,5 km/h (0 Bft) S-SO 157 -3,4 C -0,9 C 2,1 km/h (1 Bft)
11.12.2017 01:44 -0,9 C -1,8 C 1,6 C -1,4 C 83 % 995,0 hPa 0,0 l/m 0,5 km/h (0 Bft) S-SW 202 -3,4 C -0,9 C 4,8 km/h (1 Bft)
11.12.2017 01:42 -0,9 C -1,6 C 1,6 C -1,4 C 83 % 995,0 hPa 0,0 l/m 0,5 km/h (0 Bft) S-SW 202 -3,4 C -0,9 C 2,1 km/h (1 Bft)
11.12.2017 01:40 -1,0 C -1,6 C 1,6 C -1,4 C 83 % 995,0 hPa 0,0 l/m 0,5 km/h (0 Bft) W-SW 247 -3,5 C -1,0 C 4,4 km/h (1 Bft)
11.12.2017 01:38 -1,0 C -1,6 C 1,6 C -1,4 C 83 % 995,0 hPa 0,0 l/m 0,5 km/h (0 Bft) SW 225 -3,5 C -1,0 C 4,4 km/h (1 Bft)
11.12.2017 01:36 -1,0 C -1,6 C 1,6 C -1,4 C 83 % 995,0 hPa 0,0 l/m 0,5 km/h (0 Bft) NO 45 -3,5 C -1,0 C 0,0 km/h (0 Bft)
11.12.2017 01:34 -1,0 C -1,6 C 1,6 C -1,5 C 83 % 995,0 hPa 0,0 l/m 1,0 km/h (0 Bft) O-SO 112 -3,5 C -1,0 C 0,0 km/h (0 Bft)
11.12.2017 01:32 -1,0 C -1,6 C 1,6 C -1,5 C 83 % 995,0 hPa 0,0 l/m 1,0 km/h (0 Bft) O-SO 112 -3,5 C -1,0 C 0,0 km/h (0 Bft)
11.12.2017 01:30 -1,0 C -1,7 C 1,6 C -1,5 C 83 % 995,0 hPa 0,0 l/m 1,0 km/h (0 Bft) NO 45 -3,5 C -1,0 C 0,0 km/h (0 Bft)
11.12.2017 01:26 -1,0 C -1,6 C 1,6 C -1,5 C 83 % 995,4 hPa 0,0 l/m 0,6 km/h (0 Bft) W 270 -3,5 C -1,0 C 2,7 km/h (1 Bft)
11.12.2017 01:25 -1,0 C -1,7 C 1,6 C -1,5 C 83 % 995,4 hPa 0,0 l/m 0,5 km/h (0 Bft) N-NO 22 -3,5 C -1,0 C 4,1 km/h (1 Bft)
11.12.2017 01:22 -1,0 C -1,5 C 1,6 C -1,5 C 83 % 995,4 hPa 0,0 l/m 0,6 km/h (0 Bft) NO 45 -3,5 C -1,0 C 0,0 km/h (0 Bft)
11.12.2017 01:20 -1,2 C -1,7 C 1,6 C -1,5 C 83 % 995,4 hPa 0,0 l/m 0,6 km/h (0 Bft) S-SO 157 -3,7 C -1,2 C 0,0 km/h (0 Bft)
11.12.2017 01:18 -1,2 C -1,9 C 1,6 C -1,5 C 83 % 995,4 hPa 0,0 l/m 0,6 km/h (0 Bft) S-SO 157 -3,7 C -1,2 C 0,0 km/h (0 Bft)
11.12.2017 01:17 -1,2 C -2,0 C 1,6 C -1,5 C 83 % 995,4 hPa 0,0 l/m 0,6 km/h (0 Bft) S-SW 202 -3,7 C -1,2 C 0,0 km/h (0 Bft)
11.12.2017 01:14 -1,2 C -2,0 C 1,6 C -1,6 C 83 % 995,4 hPa 0,0 l/m 0,6 km/h (0 Bft) S-SW 202 -3,7 C -1,2 C 3,7 km/h (1 Bft)
11.12.2017 01:12 -1,2 C -2,1 C 1,6 C -1,6 C 83 % 995,4 hPa 0,0 l/m 0,3 km/h (0 Bft) S-SO 157 -3,7 C -1,2 C 3,1 km/h (1 Bft)
11.12.2017 01:10 -1,2 C -2,0 C 1,6 C -1,6 C 83 % 995,4 hPa 0,0 l/m 0,3 km/h (0 Bft) S-SO 157 -3,7 C -1,2 C 3,1 km/h (1 Bft)
11.12.2017 01:08 -1,2 C -2,0 C 1,6 C -1,6 C 83 % 995,9 hPa 0,0 l/m 0,3 km/h (0 Bft) S 180 -3,7 C -1,2 C 0,0 km/h (0 Bft)
11.12.2017 01:06 -1,2 C -2,0 C 1,6 C -1,6 C 83 % 995,9 hPa 0,0 l/m 0,2 km/h (0 Bft) S-SO 157 -3,7 C -1,2 C 0,0 km/h (0 Bft)
11.12.2017 01:04 -1,2 C -1,9 C 1,6 C -1,6 C 83 % 995,9 hPa 0,0 l/m 0,2 km/h (0 Bft) S-SO 157 -3,7 C -1,2 C 3,1 km/h (1 Bft)
11.12.2017 01:02 -1,2 C -1,7 C 1,6 C -1,6 C 83 % 995,9 hPa 0,0 l/m 0,2 km/h (0 Bft) S-SO 157 -3,7 C -1,2 C 3,1 km/h (1 Bft)
11.12.2017 01:00 -1,3 C -2,0 C 1,6 C -1,6 C 83 % 995,9 hPa 0,0 l/m 0,3 km/h (0 Bft) NO 45 -3,8 C -1,3 C 3,1 km/h (1 Bft)
11.12.2017 00:58 -1,2 C -2,0 C 1,6 C -1,6 C 83 % 995,9 hPa 0,0 l/m 0,3 km/h (0 Bft) SO 135 -3,7 C -1,2 C 0,0 km/h (0 Bft)
11.12.2017 00:56 -1,2 C -2,0 C 1,6 C -1,6 C 83 % 995,9 hPa 0,0 l/m 0,3 km/h (0 Bft) SO 135 -3,7 C -1,2 C 0,0 km/h (0 Bft)
11.12.2017 00:54 -1,2 C -2,0 C 1,6 C -1,6 C 83 % 995,9 hPa 0,0 l/m 0,3 km/h (0 Bft) SO 135 -3,7 C -1,2 C 2,7 km/h (1 Bft)
11.12.2017 00:52 -1,2 C -2,1 C 1,6 C -1,6 C 83 % 995,9 hPa 0,0 l/m 0,3 km/h (0 Bft) S-SO 157 -3,7 C -1,2 C 2,7 km/h (1 Bft)
11.12.2017 00:50 -1,2 C -2,2 C 1,6 C -1,6 C 83 % 995,9 hPa 0,0 l/m 0,3 km/h (0 Bft) S 180 -3,7 C -1,2 C 2,7 km/h (1 Bft)
11.12.2017 00:48 -1,2 C -2,2 C 1,6 C -1,6 C 83 % 996,1 hPa 0,0 l/m 0,2 km/h (0 Bft) S 180 -3,7 C -1,2 C 2,3 km/h (1 Bft)
11.12.2017 00:46 -1,2 C -2,1 C 1,6 C -1,6 C 83 % 996,1 hPa 0,0 l/m 0,2 km/h (0 Bft) S 180 -3,7 C -1,2 C 0,0 km/h (0 Bft)
11.12.2017 00:44 -1,2 C -2,1 C 1,6 C -1,6 C 83 % 996,1 hPa 0,0 l/m 0,0 km/h (0 Bft) SO 135 -3,7 C -1,2 C 1,9 km/h (1 Bft)
11.12.2017 00:42 -1,2 C -1,9 C 1,6 C -1,6 C 83 % 996,1 hPa 0,0 l/m 0,0 km/h (0 Bft) SO 135 -3,7 C -1,2 C 1,9 km/h (1 Bft)
11.12.2017 00:40 -1,2 C -2,1 C 1,6 C -1,6 C 83 % 996,1 hPa 0,0 l/m 0,0 km/h (0 Bft) S-SO 157 -3,7 C -1,2 C 0,0 km/h (0 Bft)
11.12.2017 00:38 -1,2 C -2,1 C 1,6 C -1,6 C 83 % 996,1 hPa 0,0 l/m 0,0 km/h (0 Bft) S-SO 157 -3,7 C -1,2 C 0,0 km/h (0 Bft)
11.12.2017 00:36 -1,2 C -2,2 C 1,6 C -1,6 C 83 % 996,1 hPa 0,0 l/m 0,0 km/h (0 Bft) O-SO 112 -3,7 C -1,2 C 2,1 km/h (1 Bft)
11.12.2017 00:34 -1,2 C -2,1 C 1,6 C -1,6 C 83 % 996,1 hPa 0,0 l/m 0,0 km/h (0 Bft) SW 225 -3,7 C -1,2 C 2,1 km/h (1 Bft)
11.12.2017 00:32 -1,2 C -2,0 C 1,6 C -1,5 C 83 % 996,1 hPa 0,0 l/m 0,0 km/h (0 Bft) SO 135 -3,7 C -1,2 C 0,0 km/h (0 Bft)
11.12.2017 00:30 -1,2 C -2,0 C 1,6 C -1,5 C 83 % 996,1 hPa 0,0 l/m 0,0 km/h (0 Bft) NW 315 -3,7 C -1,2 C 0,0 km/h (0 Bft)
11.12.2017 00:28 -1,2 C -2,0 C 1,6 C -1,5 C 83 % 996,4 hPa 0,0 l/m 0,0 km/h (0 Bft) W 270 -3,7 C -1,2 C 0,0 km/h (0 Bft)
11.12.2017 00:26 -1,2 C -1,9 C 1,6 C -1,6 C 82 % 996,4 hPa 0,0 l/m 0,0 km/h (0 Bft) S 180 -3,9 C -1,2 C 2,1 km/h (1 Bft)
11.12.2017 00:24 -1,2 C -1,9 C 1,6 C -1,5 C 82 % 996,4 hPa 0,0 l/m 0,0 km/h (0 Bft) NO 45 -3,9 C -1,2 C 2,1 km/h (1 Bft)
11.12.2017 00:22 -1,2 C -1,9 C 1,6 C -1,5 C 82 % 996,4 hPa 0,0 l/m 0,0 km/h (0 Bft) N-NO 22 -3,9 C -1,2 C 0,0 km/h (0 Bft)
11.12.2017 00:20 -1,2 C -1,9 C 1,6 C -1,5 C 82 % 996,4 hPa 0,0 l/m 0,0 km/h (0 Bft) N-NO 22 -3,9 C -1,2 C 0,0 km/h (0 Bft)
11.12.2017 00:18 -1,2 C -1,9 C 1,6 C -1,5 C 82 % 996,4 hPa 0,0 l/m 0,0 km/h (0 Bft) N-NW 337 -3,9 C -1,2 C 0,0 km/h (0 Bft)
11.12.2017 00:16 -1,2 C -2,1 C 1,6 C -1,5 C 82 % 996,4 hPa 0,0 l/m 0,0 km/h (0 Bft) W 270 -3,9 C -1,2 C 0,0 km/h (0 Bft)
11.12.2017 00:14 -1,2 C -2,0 C 1,6 C -1,5 C 82 % 996,4 hPa 0,0 l/m 0,0 km/h (0 Bft) W-SW 247 -3,9 C -1,2 C 0,0 km/h (0 Bft)
11.12.2017 00:12 -1,2 C -2,0 C 1,6 C -1,5 C 82 % 996,4 hPa 0,0 l/m 0,0 km/h (0 Bft) S-SO 157 -3,9 C -1,2 C 0,0 km/h (0 Bft)
11.12.2017 00:10 -1,0 C -1,9 C 1,6 C -1,5 C 82 % 996,4 hPa 0,0 l/m 0,0 km/h (0 Bft) N-NO 22 -3,7 C -1,0 C 0,0 km/h (0 Bft)
11.12.2017 00:09 -1,0 C -1,9 C 1,6 C -1,5 C 82 % 996,9 hPa 0,0 l/m 0,0 km/h (0 Bft) N-NO 22 -3,7 C -1,0 C 0,0 km/h (0 Bft)
11.12.2017 00:06 -1,0 C -1,9 C 1,6 C -1,5 C 82 % 996,9 hPa 0,0 l/m 0,0 km/h (0 Bft) N-NO 22 -3,7 C -1,0 C 0,0 km/h (0 Bft)
11.12.2017 00:04 -1,0 C -1,9 C 1,6 C -1,5 C 82 % 996,9 hPa 0,0 l/m 0,0 km/h (0 Bft) N-NO 22 -3,7 C -1,0 C 0,0 km/h (0 Bft)
11.12.2017 00:02 -1,0 C -1,9 C 1,6 C -1,5 C 82 % 996,9 hPa 0,0 l/m 0,0 km/h (0 Bft) N-NO 22 -3,7 C -1,0 C 0,0 km/h (0 Bft)
11.12.2017 00:00 -1,0 C -1,9 C 1,6 C -1,5 C 82 % 996,9 hPa 0,0 l/m 0,0 km/h (0 Bft) NO 45 -3,7 C -1,0 C 0,0 km/h (0 Bft)
_ Min-Zeit 07:42 03:06 10:46 07:40 12:28 11:50 - 00:00 - - 07:42 07:42 00:00
Minimum _ -1,8 C -2,7 C 1,4 C -2,1 C 73 % 993,3 hPa - 0,0 km/h (0 Bft) - - -4,3 C -1,8 C 0,0 km/h (0 Bft)
_ Max-Zeit 12:28 12:22 00:00 12:28 03:46 00:00 00:00 12:28 - - 12:28 12:28 12:24
Maximum _ 8,4 C 10,4 C 1,6 C 4,2 C 84 % 996,9 hPa 0,0 l/m 3,1 km/h
O-NO (1 Bft)
- - 3,8 C 8,4 C 11,0 km/h
O-SO (2 Bft)
Durchschnitt _ -0,3 C -0,7 C 1,6 C -0,8 C 82 % 994,6 hPa #0,0 l/m 0,4 km/h (0 Bft) O-NO - -2,9 C -0,3 C 1,5 km/h (1 Bft)